TOM12A EGSS-LKPR

Flight info

Callsign TOM12A
Flight time 1h 40m
Altitude 37000
Route CLN P44 RATLO M197 REDFA DCT TACHA DCT OTMEC DCT EXOBA DCT TOLTA DCT NOMKA L620 PIKIB T620 LALUK DCT GOLOP
Aircraft B738/M-SDE2E3FGHIRWXY/LB1

Departure

Time 2026-04-30 17:44
Airport London Stansted Airport (EGSS)

Arrival

Time 2026-04-30 19:24
Airport Václav Havel Airport Prague (LKPR)
Time Latitude Longitude Altitude Speed Heading
2026-04-30 17:39 51.87416 0.22186 329 ft 18 kts 309°
2026-04-30 17:41 51.87433 0.22155 330 ft 0 kts 311°
2026-04-30 17:42 51.87482 0.22070 328 ft 10 kts 314°
2026-04-30 17:42 51.87571 0.22087 327 ft 0 kts 41°
2026-04-30 17:43 51.87584 0.22106 329 ft 8 kts 42°
2026-04-30 17:44 51.89434 0.24692 1198 ft 187 kts 43°
2026-04-30 17:44 51.91779 0.29828 3238 ft 215 kts 91°
2026-04-30 17:46 51.88676 0.41808 3971 ft 247 kts 117°
2026-04-30 17:47 51.85721 0.51869 3987 ft 246 kts 117°
2026-04-30 17:48 51.83096 0.62282 7140 ft 261 kts 101°
2026-04-30 17:48 51.83213 0.71287 9837 ft 273 kts 89°
2026-04-30 17:49 51.83736 0.83814 11231 ft 282 kts 89°
2026-04-30 17:50 51.84192 0.96514 11243 ft 284 kts 89°
2026-04-30 17:51 51.84520 1.06035 11241 ft 283 kts 89°
2026-04-30 17:52 51.84973 1.15536 11238 ft 285 kts 76°
2026-04-30 17:53 51.89114 1.30688 14605 ft 303 kts 69°
2026-04-30 17:54 51.92577 1.43552 17328 ft 321 kts 69°
2026-04-30 17:55 51.96199 1.57175 19984 ft 333 kts 69°
2026-04-30 17:56 51.99706 1.71279 22499 ft 341 kts 77°
2026-04-30 17:57 52.01443 1.82553 24235 ft 348 kts 78°
2026-04-30 17:58 52.03214 1.94167 25712 ft 356 kts 78°
2026-04-30 17:59 52.05619 2.09783 28028 ft 353 kts 78°
2026-04-30 18:00 52.07971 2.25195 30277 ft 349 kts 78°
2026-04-30 18:00 52.09687 2.36588 31613 ft 345 kts 78°
2026-04-30 18:01 52.10826 2.44160 32441 ft 343 kts 78°
2026-04-30 18:02 52.11709 2.55570 33570 ft 335 kts 95°
2026-04-30 18:02 52.11116 2.66834 34556 ft 334 kts 96°
2026-04-30 18:03 52.10511 2.78128 35315 ft 335 kts 96°
2026-04-30 18:04 52.09909 2.89546 35823 ft 343 kts 96°
2026-04-30 18:05 52.09027 3.05984 35651 ft 380 kts 95°
2026-04-30 18:06 52.08070 3.23584 35889 ft 404 kts 96°
2026-04-30 18:07 52.07023 3.42285 36077 ft 426 kts 96°
2026-04-30 18:08 52.06181 3.56908 36306 ft 437 kts 95°
2026-04-30 18:09 52.05119 3.74947 37089 ft 438 kts 96°
2026-04-30 18:10 52.03930 3.94650 37290 ft 439 kts 96°
2026-04-30 18:11 52.01788 4.28729 37286 ft 431 kts 96°
2026-04-30 18:13 52.00189 4.53172 37290 ft 438 kts 96°
2026-04-30 18:14 51.98539 4.77632 37297 ft 433 kts 96°
2026-04-30 18:15 51.96513 5.06659 37314 ft 434 kts 96°
2026-04-30 18:16 51.95107 5.26209 37289 ft 435 kts 96°
2026-04-30 18:17 51.94394 5.35954 37311 ft 433 kts 96°
2026-04-30 18:18 51.93320 5.50428 37311 ft 432 kts 96°
2026-04-30 18:18 51.92593 5.60092 37324 ft 432 kts 96°
2026-04-30 18:19 51.91856 5.69770 37324 ft 432 kts 96°
2026-04-30 18:19 51.91110 5.79458 37318 ft 433 kts 96°
2026-04-30 18:20 51.90360 5.89087 37330 ft 433 kts 95°
2026-04-30 18:20 51.89596 5.98800 37322 ft 434 kts 95°
2026-04-30 18:21 51.88822 6.08518 37324 ft 435 kts 96°
2026-04-30 18:21 51.88042 6.18234 37333 ft 435 kts 96°
2026-04-30 18:22 51.87251 6.27974 37343 ft 436 kts 96°
2026-04-30 18:22 51.86055 6.42517 37343 ft 436 kts 95°
2026-04-30 18:23 51.85240 6.52290 37329 ft 437 kts 96°
2026-04-30 18:23 51.84417 6.62047 37341 ft 437 kts 96°
2026-04-30 18:24 51.83175 6.76617 37335 ft 437 kts 96°
2026-04-30 18:25 51.82332 6.86365 37352 ft 437 kts 96°
2026-04-30 18:25 51.81055 7.00980 37346 ft 437 kts 96°
2026-04-30 18:26 51.79763 7.15533 37346 ft 437 kts 96°
2026-04-30 18:27 51.78450 7.30120 37361 ft 437 kts 95°
2026-04-30 18:28 51.77120 7.44699 37355 ft 437 kts 96°
2026-04-30 18:28 51.75774 7.59232 37356 ft 436 kts 96°
2026-04-30 18:29 51.73956 7.78554 37363 ft 437 kts 96°
2026-04-30 18:30 51.72098 7.97935 37367 ft 437 kts 96°
2026-04-30 18:31 51.70684 8.12471 37370 ft 437 kts 96°
2026-04-30 18:32 51.69249 8.27014 37394 ft 437 kts 96°
2026-04-30 18:33 51.67804 8.41482 37382 ft 438 kts 96°
2026-04-30 18:33 51.66331 8.56022 37373 ft 438 kts 96°
2026-04-30 18:34 51.64842 8.70551 37374 ft 438 kts 96°
2026-04-30 18:35 51.63845 8.80162 37380 ft 438 kts 96°
2026-04-30 18:35 51.62835 8.89836 37381 ft 438 kts 96°
2026-04-30 18:36 51.61306 9.04318 37398 ft 437 kts 96°
2026-04-30 18:37 51.59758 9.18799 37405 ft 437 kts 96°
2026-04-30 18:37 51.58724 9.28377 37409 ft 437 kts 96°
2026-04-30 18:38 51.57676 9.38003 37410 ft 436 kts 96°
2026-04-30 18:38 51.56622 9.47610 37410 ft 436 kts 96°
2026-04-30 18:39 51.55559 9.57220 37404 ft 437 kts 96°
2026-04-30 18:39 51.54487 9.66835 37423 ft 437 kts 96°
2026-04-30 18:40 51.53406 9.76455 37409 ft 437 kts 96°
2026-04-30 18:40 51.52324 9.86006 37426 ft 437 kts 96°
2026-04-30 18:41 51.51226 9.95617 37415 ft 437 kts 96°
2026-04-30 18:41 51.50120 10.05228 37431 ft 437 kts 96°
2026-04-30 18:42 51.49008 10.14807 37456 ft 437 kts 96°
2026-04-30 18:42 51.47229 10.29163 37442 ft 438 kts 99°
2026-04-30 18:45 51.39817 10.81337 37434 ft 437 kts 99°
2026-04-30 18:46 51.38297 10.90754 37439 ft 436 kts 100°
2026-04-30 18:46 51.36778 11.00154 37443 ft 436 kts 99°
2026-04-30 18:47 51.35264 11.09556 37452 ft 436 kts 99°
2026-04-30 18:47 51.33751 11.18909 37439 ft 436 kts 99°
2026-04-30 18:48 51.32220 11.28303 37440 ft 436 kts 99°
2026-04-30 18:48 51.30680 11.37705 37438 ft 437 kts 99°
2026-04-30 18:49 51.29133 11.47099 37442 ft 437 kts 100°
2026-04-30 18:49 51.27518 11.56402 37444 ft 437 kts 100°
2026-04-30 18:50 51.25936 11.65795 37437 ft 437 kts 99°
2026-04-30 18:50 51.24644 11.73602 37442 ft 437 kts 99°
2026-04-30 18:51 51.22819 11.84520 37442 ft 437 kts 99°
2026-04-30 18:51 51.21502 11.92324 37437 ft 438 kts 99°
2026-04-30 18:52 51.19896 12.01715 37448 ft 438 kts 99°
2026-04-30 18:52 51.18271 12.11086 37437 ft 438 kts 99°
2026-04-30 18:53 51.16656 12.20379 37435 ft 437 kts 99°
2026-04-30 18:53 51.15025 12.29696 37431 ft 436 kts 99°
2026-04-30 18:54 51.13383 12.39009 37433 ft 435 kts 99°
2026-04-30 18:54 51.11750 12.48232 37433 ft 435 kts 99°
2026-04-30 18:55 51.10104 12.57505 37007 ft 439 kts 99°
2026-04-30 18:55 51.08433 12.66810 35881 ft 435 kts 100°
2026-04-30 18:55 51.07591 12.71444 35232 ft 435 kts 100°
2026-04-30 18:56 51.05912 12.80658 33844 ft 436 kts 100°
2026-04-30 18:56 51.05062 12.85307 33109 ft 436 kts 100°
2026-04-30 18:56 51.04214 12.89935 32413 ft 435 kts 99°
2026-04-30 18:57 51.02518 12.99164 30900 ft 435 kts 99°
2026-04-30 18:57 51.01664 13.03797 30049 ft 436 kts 99°
2026-04-30 18:57 51.00822 13.08351 29190 ft 435 kts 100°
2026-04-30 18:58 50.99116 13.17539 27748 ft 427 kts 100°
2026-04-30 18:58 50.98275 13.22052 27107 ft 423 kts 100°
2026-04-30 18:58 50.97445 13.26498 26517 ft 417 kts 100°
2026-04-30 18:59 50.95831 13.35209 25398 ft 407 kts 99°
2026-04-30 19:00 50.93587 13.47994 23620 ft 397 kts 99°
2026-04-30 19:00 50.92824 13.52190 22980 ft 395 kts 100°
2026-04-30 19:00 50.91269 13.60435 21815 ft 387 kts 101°
2026-04-30 19:01 50.89669 13.68518 20655 ft 384 kts 107°
2026-04-30 19:01 50.88457 13.72313 20110 ft 388 kts 115°
2026-04-30 19:02 50.85098 13.79082 19004 ft 393 kts 124°
2026-04-30 19:02 50.81550 13.85790 17764 ft 399 kts 124°
2026-04-30 19:03 50.78427 13.92875 17093 ft 389 kts 114°
2026-04-30 19:03 50.75910 14.00413 16537 ft 386 kts 112°
2026-04-30 19:04 50.73384 14.07897 16016 ft 384 kts 114°
2026-04-30 19:04 50.70814 14.15258 15524 ft 382 kts 114°
2026-04-30 19:05 50.68232 14.22557 14979 ft 378 kts 115°
2026-04-30 19:05 50.65683 14.29742 14495 ft 377 kts 115°
2026-04-30 19:06 50.63129 14.36920 13953 ft 374 kts 115°
2026-04-30 19:06 50.61749 14.40402 13681 ft 377 kts 126°
2026-04-30 19:06 50.57134 14.44381 13184 ft 394 kts 168°
2026-04-30 19:07 50.51798 14.42748 12648 ft 404 kts 210°
2026-04-30 19:07 50.49463 14.40304 12406 ft 402 kts 213°
2026-04-30 19:08 50.44845 14.35499 11923 ft 386 kts 206°
2026-04-30 19:08 50.40003 14.34220 11671 ft 336 kts 170°
2026-04-30 19:08 50.37742 14.34664 11553 ft 318 kts 168°
2026-04-30 19:09 50.33555 14.35572 11278 ft 294 kts 168°
2026-04-30 19:09 50.31547 14.36002 11043 ft 291 kts 168°
2026-04-30 19:09 50.29538 14.36422 10767 ft 290 kts 168°
2026-04-30 19:10 50.25579 14.37230 10231 ft 287 kts 169°
2026-04-30 19:10 50.21641 14.38020 9651 ft 285 kts 169°
2026-04-30 19:11 50.19671 14.38413 9356 ft 284 kts 169°
2026-04-30 19:11 50.15795 14.39183 8853 ft 279 kts 168°
2026-04-30 19:11 50.13989 14.40098 8544 ft 269 kts 141°
2026-04-30 19:12 50.12659 14.42049 8174 ft 260 kts 126°
2026-04-30 19:12 50.11563 14.44270 7721 ft 258 kts 123°
2026-04-30 19:12 50.10508 14.46525 7275 ft 257 kts 123°
2026-04-30 19:13 50.08409 14.50941 6420 ft 253 kts 124°
2026-04-30 19:13 50.06292 14.55305 5513 ft 251 kts 124°
2026-04-30 19:13 50.05240 14.57465 5106 ft 249 kts 125°
2026-04-30 19:14 50.04218 14.59557 4996 ft 234 kts 125°
2026-04-30 19:14 50.03267 14.61503 4982 ft 217 kts 124°
2026-04-30 19:14 50.02387 14.63301 4982 ft 207 kts 124°
2026-04-30 19:14 50.01531 14.65050 4995 ft 199 kts 124°
2026-04-30 19:15 50.00710 14.66724 4998 ft 188 kts 124°
2026-04-30 19:15 49.99151 14.69732 5000 ft 176 kts 138°
2026-04-30 19:15 49.98038 14.70467 4981 ft 184 kts 179°
2026-04-30 19:16 49.96899 14.69677 5006 ft 180 kts 227°
2026-04-30 19:16 49.96412 14.67975 5026 ft 174 kts 266°
2026-04-30 19:16 49.96363 14.64350 5044 ft 169 kts 259°
2026-04-30 19:17 49.96145 14.62565 5067 ft 164 kts 261°
2026-04-30 19:17 49.95745 14.59183 4546 ft 155 kts 261°
2026-04-30 19:17 49.95584 14.57540 4051 ft 155 kts 272°
2026-04-30 19:18 49.96127 14.55001 3290 ft 145 kts 309°
2026-04-30 19:18 49.96903 14.53340 2761 ft 139 kts 312°
2026-04-30 19:18 49.97447 14.52201 2834 ft 134 kts 313°
2026-04-30 19:19 49.98052 14.50954 2920 ft 146 kts 312°
2026-04-30 19:19 49.98661 14.49690 2926 ft 146 kts 312°
2026-04-30 19:19 49.99868 14.47185 2941 ft 145 kts 312°
2026-04-30 19:20 50.00474 14.45926 2940 ft 145 kts 311°
2026-04-30 19:20 50.01081 14.44668 2940 ft 145 kts 312°
2026-04-30 19:20 50.02289 14.42162 2927 ft 144 kts 312°
2026-04-30 19:21 50.02890 14.40915 2933 ft 144 kts 312°
2026-04-30 19:21 50.04106 14.38396 2895 ft 149 kts 312°
2026-04-30 19:22 50.05326 14.35867 2525 ft 144 kts 312°
2026-04-30 19:22 50.07121 14.32144 1891 ft 143 kts 310°
2026-04-30 19:23 50.08884 14.28481 1331 ft 139 kts 309°
2026-04-30 19:24 50.09878 14.26389 1196 ft 84 kts 311°
2026-04-30 19:24 50.10156 14.25874 1184 ft 41 kts 307°
2026-04-30 19:24 50.10278 14.25704 1184 ft 8 kts 337°
2026-04-30 19:25 50.10412 14.25656 1183 ft 12 kts
2026-04-30 19:26 50.10426 14.25658 1183 ft 2 kts
2026-04-30 19:26 50.10485 14.25721 1183 ft 11 kts 71°
2026-04-30 19:26 50.10502 14.25857 1185 ft 13 kts 79°
2026-04-30 19:27 50.10537 14.26133 1187 ft 13 kts 81°
2026-04-30 19:27 50.10479 14.26375 1188 ft 12 kts 127°
2026-04-30 19:28 50.10435 14.26482 1190 ft 10 kts 104°
2026-04-30 19:28 50.11097 14.26920 1170 ft 0 kts 245°